Regional Weather Roundup
Issued by NWS

Home | Current Version | Previous Version | Text Only | Print | Product List | Glossary On
Versions: 1 2 3 4 5 6 7 8 9 10 11 12 13 14 15 16 17 18 19 20 21 22 23 24 25 26 27 28 29 30 31 32 33 34 35 36 37 38 39 40 41 42 43 44 45 46 47 48 49 50
000
ASUS44 KBMX 270910
RWRAL

ALABAMA REGIONAL WEATHER ROUNDUP
NATIONAL WEATHER SERVICE BIRMINGHAM AL
400 AM CDT SAT MAY 27 2017

NOTE: "FAIR" INDICATES FEW OR NO CLOUDS BELOW 12,000 FEET
WITH NO SIGNIFICANT WEATHER AND/OR OBSTRUCTIONS TO VISIBILITY.

THE REMARK "TC" DENOTES TEMPERATURE IN DEGREES CELSIUS.

ALZ001>011-014-016>018-020-271000-
NORTH ALABAMA

CITY           SKY/WX    TMP DP  RH WIND       PRES   REMARKS
MUSCLE SHOALS  PTCLDY    71  61  70 S6        29.94S
HUNTSVILLE     CLEAR     71  64  78 SW7       29.95F
DECATUR        CLEAR     70  63  78 S8        29.95F
HALEYVILLE     FAIR      66  62  87 S6        29.99S
GADSDEN        CLEAR     61  60  97 CALM      30.00S
$$

ALZ012-013-022-023-030>036-040>044-271000-
WEST CENTRAL ALABAMA

CITY           SKY/WX    TMP DP  RH WIND       PRES   REMARKS
TUSCALOOSA     CLOUDY    66  63  90 S5        29.99S
$$

ALZ015-024>027-033>036-040>044-271000-
CENTRAL ALABAMA

CITY           SKY/WX    TMP DP  RH WIND       PRES   REMARKS
BIRMINGHAM     CLEAR     70  61  73 SW7       30.02S
MONTGOMERY     CLEAR     62  56  80 CALM      30.03R
SHELBY CO ARPT CLEAR     64  62  93 CALM      30.01S
MAXWELL AFB    CLEAR     62  60  94 CALM      30.02R
GREENVILLE     FAIR      62  57  83 CALM      30.02R
$$

ALZ019-021-028-029-037-038-045>048-271000-
EAST CENTRAL ALABAMA

CITY           SKY/WX    TMP DP  RH WIND       PRES   REMARKS
ANNISTON       CLEAR     62  60  93 CALM      30.02S
ALEXANDER CITY CLEAR     60  58  95 CALM      30.03S
AUBURN         CLEAR     66  60  81 CALM      30.05R
$$

ALZ051>064-271000-
SOUTHWEST ALABAMA

CITY           SKY/WX    TMP DP  RH WIND       PRES   REMARKS
MOBILE         CLOUDY    72  69  90 CALM      30.00R
BROOKLEY FIELD CLOUDY    74  71  91 CALM      30.00S
EVERGREEN      CLEAR     57  56  96 CALM      30.01S
$$

ALZ049-050-065>069-271000-
SOUTHEAST ALABAMA

CITY           SKY/WX    TMP DP  RH WIND       PRES   REMARKS
DOTHAN         CLEAR     64  63  96 CALM      30.06R
OZARK          PTCLDY    62  60  92 CALM      30.02R
TROY           CLEAR     59  59 100 CALM      30.03R
EUFAULA        FAIR      61  58  90 CALM      30.02R
$$



USA.gov is the U.S. government's official web portal to all federal, state and local government web resources and services.